EA3IK-1 Weather Reports


time (UTC)temp
F
wind
direction
speed
knots
gust
knots
rain 1hr
in
rain 24hr
in
rain mn
in
humidity
%
barometer
mb
20260503005803 61 329 1.7 4.3 0.00 0.00 0.00 50 1017.7
20260503004302 61 272 1.7 3.5 0.00 0.00 0.00 49 1018.0
20260503002801 61 281 0.9 3.5 0.00 0.00 0.00 50 1018.2
20260503001300 61 305 0.0 0.0 0.00 0.00 0.00 50 1018.4
20260502235759 61 269 0.9 2.6 0.00 0.00 0.00 49 1018.5
20260502234258 61 245 0.9 3.5 0.00 0.00 0.00 49 1018.6
20260502232757 61 249 1.7 3.5 0.00 0.00 0.00 49 1018.7
20260502231257 61 230 2.6 5.2 0.00 0.00 0.00 50 1018.7
20260502225756 61 265 1.7 3.5 0.00 0.00 0.00 50 1018.6
20260502224255 61 296 1.7 3.5 0.00 0.00 0.00 50 1018.7
20260502222754 61 298 1.7 3.5 0.00 0.00 0.00 50 1018.8
20260502221253 61 286 0.9 5.2 0.00 0.00 0.00 50 1018.8
20260502215752 61 311 0.9 3.5 0.00 0.00 0.00 49 1019.0
20260502214251 62 305 0.9 3.5 0.00 0.00 0.00 50 1019.1
20260502212751 62 274 1.7 5.2 0.00 0.00 0.00 51 1019.3
20260502211250 62 305 0.9 2.6 0.00 0.00 0.00 51 1019.2
20260502205749 61 291 1.7 6.1 0.00 0.00 0.00 51 1019.2
20260502204248 61 256 1.7 6.1 0.00 0.00 0.00 51 1019.2
20260502202747 61 324 1.7 3.5 0.00 0.00 0.00 52 1019.0
20260502201246 62 310 0.9 2.6 0.00 0.00 0.00 53 1019.0
20260502195745 62 286 1.7 3.5 0.00 0.00 0.00 53 1018.7
20260502194245 62 232 1.7 6.1 0.00 0.00 0.00 53 1018.8
20260502192744 62 264 2.6 7.0 0.00 0.00 0.00 54 1018.8
20260502191243 62 269 1.7 6.1 0.00 0.00 0.00 56 1018.7
20260502185742 62 255 2.6 7.0 0.00 0.00 0.00 58 1018.8
20260502184241 63 302 1.7 3.5 0.00 0.00 0.00 59 1018.7
20260502182740 63 283 2.6 6.1 0.00 0.00 0.00 61 1018.8
20260502181239 63 302 2.6 7.8 0.00 0.00 0.00 62 1018.6
20260502164234 65 329 3.5 8.7 0.00 0.00 0.00 68 1019.5
20260502162733 65 250 4.3 9.6 0.00 0.00 0.00 69 1019.3
20260502161233 65 306 5.2 8.7 0.00 0.00 0.00 68 1019.3
20260502151229 66 302 3.5 8.7 0.00 0.00 0.00 68 1020.0
20260502122720 68 315 1.7 8.7 0.00 0.00 0.00 66 1021.4
20260502121219 67 5 1.7 3.5 0.00 0.00 0.00 67 1021.5
20260502115718 67 290 3.5 9.6 0.00 0.00 0.00 67 1021.6
20260502114217 66 264 2.6 6.1 0.00 0.00 0.00 67 1021.7
20260502112716 66 223 1.7 4.3 0.00 0.00 0.00 68 1021.9
20260502111215 65 240 1.7 5.2 0.00 0.00 0.00 68 1022.0
20260502105715 65 253 2.6 5.2 0.00 0.00 0.00 68 1022.0
20260502104214 64 281 2.6 7.0 0.00 0.00 0.00 68 1022.2
20260502102713 65 303 2.6 6.1 0.00 0.00 0.00 68 1022.4
20260502101212 65 256 0.9 3.5 0.00 0.00 0.00 68 1022.6
20260502091209 63 309 0.9 3.5 0.00 0.00 0.00 63 1022.8
20260502071202 62 329 0.9 2.6 0.00 0.00 0.00 57 1022.9
20260502065701 62 313 0.9 2.6 0.00 0.00 0.00 56 1022.9
20260502064200 62 311 0.9 3.5 0.00 0.00 0.00 55 1022.8
20260502062659 61 275 1.7 5.2 0.00 0.00 0.00 53 1022.6
20260502061158 61 263 1.7 5.2 0.00 0.00 0.00 53 1022.7
20260502055658 61 261 0.9 3.5 0.00 0.00 0.00 52 1022.6
20260502054157 61 264 0.9 3.5 0.00 0.00 0.00 52 1022.5
20260502052656 61 242 1.7 4.3 0.00 0.00 0.00 52 1022.5
20260502051155 61 234 0.9 5.2 0.00 0.00 0.00 53 1022.5
20260502045654 61 256 1.7 3.5 0.00 0.00 0.00 53 1022.4
20260502044153 61 246 1.7 6.1 0.00 0.00 0.00 53 1022.4
20260502042652 61 292 2.6 3.5 0.00 0.00 0.00 53 1022.4
20260502041152 61 289 2.6 5.2 0.00 0.00 0.00 53 1022.4
20260502035651 61 300 2.6 4.3 0.00 0.00 0.00 52 1022.3
20260502034150 61 307 2.6 7.0 0.00 0.00 0.00 51 1022.4
20260502032649 62 296 1.7 4.3 0.00 0.00 0.00 50 1022.3
20260502031148 62 300 1.7 4.3 0.00 0.00 0.00 50 1022.4
20260502025647 62 313 1.7 3.5 0.00 0.00 0.00 51 1022.4
20260502024146 62 244 1.7 6.1 0.00 0.00 0.00 50 1022.5
20260502022646 62 263 1.7 5.2 0.00 0.00 0.00 51 1022.5
20260502021145 62 263 1.7 3.5 0.00 0.00 0.00 52 1022.6
20260502015644 62 244 0.9 6.1 0.00 0.00 0.00 55 1022.6
20260502014143 62 331 0.0 2.6 0.00 0.00 0.00 56 1022.7
20260502012642 62 265 0.0 1.7 0.00 0.00 0.00 56 1022.7
20260502011141 62 271 0.9 2.6 0.00 0.00 0.00 56 1022.9